Location: Marcé
(47.5801°N, 0.3280°W)
Time: 15:46:18
(UTC+01:00)

Explorer 7 - Pass Details

Date: 02 December 2021
Orbit: 483 x 674 km, 50.3° (Epoch: 19 January)

Event Time Altitude Azimuth Distance (km) Brightness Sun altitude
Rises 12:44:48 0° 290° (WNW) 2,618 10.1 20.4°
Reaches altitude 10° 12:47:05 10° 284° (WNW) 1,708 9.2 20.4°
Maximum altitude 12:50:46 47° 211° (SSW) 660 8.3 20.4°
Drops below altitude 10° 12:54:22 10° 137° (SE) 1,659 10.1 20.4°
Sets 12:56:34 0° 131° (SE) 2,534 10.8 20.4°
